Sussex, NJ

12:36 AM EST on January 21, 2017 (GMT -0500)
Sussex

Weather History for KFWN - November, 2013

Change the Weather History Date:

Sunday, November 3, 2013

  Actual Average Record
Temperature  
Mean Temperature 41 °F -  
Max Temperature 48 °F 60 °F 79 °F (1982)
Min Temperature 33 °F 36 °F 20 °F (1980)
Degree Days  
Heating Degree Days 24    
Moisture  
Dew Point 29 °F    
Average Humidity 63    
Maximum Humidity 92    
Minimum Humidity 40    
Precipitation  
Precipitation 0.00 in - - ()
Sea Level Pressure  
Sea Level Pressure 30.13 in    
Wind  
Wind Speed 5 mph (NNW)    
Max Wind Speed 12 mph    
Max Gust Speed 20 mph    
Visibility 10 miles    
Events Rain    
Averages and records for this station are not official NWS values.
T = Trace of Precipitation, MM = Missing Value Source: NWS Daily Summary

Daily Weather History Graph

Daily Weather History Graph

Search for Another Location

Airport or City:

Trip Planner

Search our weather history database for the weather conditions in past years. The results will help you decide how hot, cold, wet, or windy it might be!

Date:

Astronomy

Nov. 03, 2013 Rise Set
Actual Time 6:32 AM EST 4:51 PM EST
Civil Twilight 6:03 AM EST 5:19 PM EST
Nautical Twilight 5:30 AM EST 5:52 PM EST
Astronomical Twilight 4:58 AM EST 6:24 PM EST
Moon 6:33 AM EST (11/3) 5:03 PM EST (11/3)
Length of Visible Light 11h 16m
Length of Day
10h 18m
New Moon, 0% of the Moon is Illuminated
Nov 3
New Moon
Nov 10
First Quarter
Nov 17
Full
Nov 25
Last Quarter
Dec 2
New

Hourly Weather History & Observations

Time (EST) Temp. Windchill Dew Point Humidity Pressure Visibility Wind Dir Wind Speed Gust Speed Precip Events Conditions
12:53 AM 42.1 °F - 39.9 °F 92% 29.82 in 10.0 mi Calm Calm - N/A   Overcast
1:53 AM 46.0 °F 44.8 °F 39.9 °F 79% 29.83 in 10.0 mi North 3.5 mph - N/A   Mostly Cloudy
1:53 AM 43.0 °F - 39.9 °F 89% 29.85 in 10.0 mi Calm Calm - N/A   Overcast
2:53 AM 48.0 °F - 41.0 °F 77% 29.87 in 10.0 mi NW 5.8 mph - 0.00 in Rain Light Rain
3:36 AM 46.4 °F 42.4 °F 37.4 °F 71% 29.91 in 10.0 mi NNW 8.1 mph - 0.00 in Rain Light Rain
3:53 AM 46.0 °F 44.8 °F 37.9 °F 73% 29.92 in 10.0 mi North 3.5 mph - 0.00 in Rain Light Rain
4:53 AM 44.1 °F 40.8 °F 37.0 °F 76% 29.96 in 10.0 mi North 5.8 mph - 0.00 in   Overcast
5:53 AM 43.0 °F 40.3 °F 35.1 °F 74% 29.99 in 10.0 mi Variable 4.6 mph - N/A   Overcast
6:53 AM 42.1 °F 37.1 °F 34.0 °F 73% 30.03 in 10.0 mi NNW 8.1 mph - N/A   Overcast
7:02 AM 42.8 °F 38.0 °F 33.8 °F 70% 30.04 in 10.0 mi North 8.1 mph - N/A   Overcast
7:53 AM 42.1 °F 37.7 °F 33.1 °F 70% 30.08 in 10.0 mi North 6.9 mph - N/A   Overcast
8:53 AM 42.1 °F 39.2 °F 33.1 °F 70% 30.12 in 10.0 mi Variable 4.6 mph - N/A   Overcast
9:18 AM 42.8 °F 38.6 °F 33.8 °F 70% 30.12 in 10.0 mi North 6.9 mph - N/A   Overcast
9:53 AM 42.1 °F 37.7 °F 32.0 °F 67% 30.15 in 10.0 mi Variable 6.9 mph 17.3 mph N/A   Overcast
10:00 AM 42.8 °F 38.0 °F 32.0 °F 66% 30.14 in 10.0 mi NNW 8.1 mph 17.3 mph N/A   Overcast
10:53 AM 43.0 °F 38.8 °F 30.9 °F 62% 30.17 in 10.0 mi Variable 6.9 mph - N/A   Overcast
11:53 AM 44.1 °F 38.1 °F 30.0 °F 58% 30.18 in 10.0 mi NW 11.5 mph 18.4 mph N/A   Mostly Cloudy
12:53 PM 45.0 °F 40.6 °F 27.0 °F 49% 30.18 in 10.0 mi NNW 8.1 mph - N/A   Clear
1:53 PM 45.0 °F 40.1 °F 25.0 °F 46% 30.20 in 10.0 mi North 9.2 mph 16.1 mph N/A   Clear
2:53 PM 45.0 °F 41.2 °F 21.9 °F 40% 30.23 in 10.0 mi Variable 6.9 mph 19.6 mph N/A   Clear
3:53 PM 42.1 °F 37.1 °F 19.9 °F 41% 30.27 in 10.0 mi NNW 8.1 mph 18.4 mph N/A   Clear
4:53 PM 37.9 °F 33.5 °F 19.9 °F 48% 30.31 in 10.0 mi NNW 5.8 mph 18.4 mph N/A   Clear
5:53 PM 35.1 °F 31.0 °F 19.9 °F 54% 30.35 in 10.0 mi North 4.6 mph - N/A   Clear
6:53 PM 35.1 °F 30.1 °F 19.0 °F 52% 30.37 in 10.0 mi NNW 5.8 mph - N/A   Clear
7:53 PM 34.0 °F 29.8 °F 18.0 °F 52% 30.38 in 10.0 mi NNW 4.6 mph - N/A   Partly Cloudy
8:53 PM 35.1 °F 27.9 °F 18.0 °F 50% 30.40 in 10.0 mi North 9.2 mph - N/A   Clear
9:53 PM 34.0 °F 27.2 °F 18.0 °F 52% 30.42 in 10.0 mi North 8.1 mph - N/A   Clear
10:53 PM 33.1 °F 28.7 °F 18.0 °F 54% 30.45 in 10.0 mi North 4.6 mph - N/A   Clear